TimeCDT,TemperatureF,Dew PointF,Humidity,Sea Level PressureIn,VisibilityMPH,Wind Direction,Wind SpeedMPH,Gust SpeedMPH,PrecipitationIn,Events,Conditions,WindDirDegrees,DateUTC
12:15 AM,44.6,35.6,71,29.98,10.0,NW,20.7,31.1,N/A,,Overcast,320,2014-05-13 05:15:00
12:35 AM,42.8,35.6,76,29.98,10.0,NW,19.6,24.2,N/A,,Overcast,320,2014-05-13 05:35:00
1:15 AM,42.8,35.6,76,29.98,10.0,NNW,20.7,31.1,N/A,,Overcast,330,2014-05-13 06:15:00
1:35 AM,42.8,35.6,76,30.00,10.0,NW,19.6,28.8,N/A,,Overcast,320,2014-05-13 06:35:00
1:55 AM,42.8,33.8,70,30.01,10.0,NW,18.4,-,N/A,,Overcast,320,2014-05-13 06:55:00
2:35 AM,42.8,35.6,76,30.02,10.0,NW,11.5,18.4,N/A,,Overcast,310,2014-05-13 07:35:00
2:55 AM,42.8,33.8,70,30.02,10.0,NW,13.8,-,N/A,,Overcast,310,2014-05-13 07:55:00
3:15 AM,42.8,33.8,70,30.02,10.0,NW,15.0,-,N/A,,Overcast,310,2014-05-13 08:15:00
3:35 AM,42.8,35.6,76,30.03,10.0,WNW,15.0,-,N/A,,Overcast,300,2014-05-13 08:35:00
3:55 AM,42.8,33.8,70,30.03,10.0,NW,13.8,-,N/A,,Overcast,310,2014-05-13 08:55:00
4:15 AM,41.0,33.8,76,30.03,10.0,WNW,13.8,-,N/A,,Overcast,300,2014-05-13 09:15:00
4:35 AM,41.0,33.8,76,30.03,10.0,NW,13.8,-,N/A,,Overcast,310,2014-05-13 09:35:00
4:55 AM,41.0,33.8,76,30.03,10.0,WNW,12.7,-,N/A,,Overcast,300,2014-05-13 09:55:00
5:15 AM,41.0,33.8,76,30.04,10.0,NW,12.7,-,N/A,,Overcast,310,2014-05-13 10:15:00
5:35 AM,39.2,33.8,81,30.05,10.0,WNW,11.5,-,N/A,,Overcast,300,2014-05-13 10:35:00
5:55 AM,39.2,30.2,70,30.05,10.0,WNW,12.7,-,N/A,,Scattered Clouds,300,2014-05-13 10:55:00
6:15 AM,37.4,30.2,75,30.05,10.0,WNW,12.7,-,N/A,,Clear,300,2014-05-13 11:15:00
6:35 AM,37.4,30.2,75,30.06,10.0,WNW,11.5,-,N/A,,Clear,300,2014-05-13 11:35:00
6:55 AM,39.2,30.2,70,30.08,10.0,WNW,12.7,-,N/A,,Clear,300,2014-05-13 11:55:00
7:15 AM,39.2,32.0,75,30.09,10.0,WNW,15.0,-,N/A,,Clear,300,2014-05-13 12:15:00
8:15 AM,42.8,32.0,66,30.11,10.0,NW,15.0,21.9,N/A,,Clear,310,2014-05-13 13:15:00
8:35 AM,44.6,32.0,61,30.11,10.0,NW,18.4,-,N/A,,Clear,310,2014-05-13 13:35:00
8:55 AM,44.6,33.8,66,30.11,10.0,NW,20.7,24.2,N/A,,Partly Cloudy,320,2014-05-13 13:55:00
9:15 AM,46.4,33.8,62,30.11,10.0,NW,19.6,24.2,N/A,,Partly Cloudy,320,2014-05-13 14:15:00
9:55 AM,48.2,33.8,58,30.12,10.0,NW,24.2,34.5,N/A,,Clear,320,2014-05-13 14:55:00
11:35 AM,50.0,30.2,47,30.16,10.0,NNW,25.3,28.8,N/A,,Mostly Cloudy,330,2014-05-13 16:35:00
11:55 AM,51.8,30.2,44,30.17,10.0,NNW,21.9,28.8,N/A,,Mostly Cloudy,330,2014-05-13 16:55:00
12:35 PM,51.8,32.0,47,30.18,10.0,NW,19.6,29.9,N/A,,Mostly Cloudy,320,2014-05-13 17:35:00
12:55 PM,50.0,30.2,47,30.18,10.0,NW,19.6,26.5,N/A,,Overcast,320,2014-05-13 17:55:00
1:15 PM,50.0,30.2,47,30.19,10.0,WNW,20.7,-,N/A,,Overcast,300,2014-05-13 18:15:00
1:35 PM,53.6,30.2,41,30.19,10.0,NW,20.7,28.8,N/A,,Overcast,320,2014-05-13 18:35:00
1:55 PM,51.8,30.2,44,30.19,10.0,WNW,19.6,27.6,N/A,,Overcast,300,2014-05-13 18:55:00
2:15 PM,51.8,30.2,44,30.20,10.0,NW,18.4,24.2,N/A,,Overcast,310,2014-05-13 19:15:00
2:35 PM,51.8,30.2,44,30.20,10.0,NW,20.7,25.3,N/A,,Overcast,310,2014-05-13 19:35:00
2:55 PM,53.6,30.2,41,30.20,10.0,NW,19.6,28.8,N/A,,Overcast,310,2014-05-13 19:55:00
3:15 PM,53.6,30.2,41,30.20,10.0,WNW,18.4,26.5,N/A,,Mostly Cloudy,300,2014-05-13 20:15:00
3:35 PM,51.8,32.0,47,30.20,10.0,NW,17.3,23.0,N/A,,Overcast,310,2014-05-13 20:35:00
3:55 PM,53.6,30.2,41,30.20,10.0,NW,16.1,26.5,N/A,,Mostly Cloudy,310,2014-05-13 20:55:00
4:15 PM,53.6,30.2,41,30.19,10.0,NW,19.6,25.3,N/A,,Mostly Cloudy,310,2014-05-13 21:15:00
4:35 PM,55.4,32.0,41,30.19,10.0,NW,18.4,26.5,N/A,,Scattered Clouds,310,2014-05-13 21:35:00
4:55 PM,53.6,30.2,41,30.19,10.0,NW,18.4,23.0,N/A,,Mostly Cloudy,320,2014-05-13 21:55:00
5:15 PM,51.8,30.2,44,30.19,10.0,NW,17.3,24.2,N/A,,Partly Cloudy,320,2014-05-13 22:15:00
5:35 PM,55.4,30.2,38,30.20,10.0,NW,19.6,24.2,N/A,,Scattered Clouds,310,2014-05-13 22:35:00
5:55 PM,55.4,30.2,38,30.20,10.0,NNW,19.6,25.3,N/A,,Mostly Cloudy,330,2014-05-13 22:55:00
6:15 PM,53.6,30.2,41,30.20,10.0,NNW,20.7,24.2,N/A,,Overcast,330,2014-05-13 23:15:00
6:35 PM,53.6,30.2,41,30.20,10.0,NNW,18.4,-,N/A,,Mostly Cloudy,330,2014-05-13 23:35:00
6:55 PM,53.6,30.2,41,30.20,10.0,NNW,19.6,-,N/A,,Mostly Cloudy,330,2014-05-13 23:55:00
7:15 PM,51.8,28.4,41,30.20,10.0,NW,18.4,25.3,N/A,,Mostly Cloudy,310,2014-05-14 00:15:00
7:35 PM,53.6,30.2,41,30.21,10.0,NNW,19.6,-,N/A,,Mostly Cloudy,330,2014-05-14 00:35:00
7:55 PM,51.8,28.4,41,30.21,10.0,NNW,16.1,23.0,N/A,,Scattered Clouds,330,2014-05-14 00:55:00
8:15 PM,50.0,30.2,47,30.22,10.0,NNW,12.7,-,N/A,,Clear,340,2014-05-14 01:15:00
8:35 PM,48.2,30.2,50,30.23,10.0,NNW,11.5,-,N/A,,Clear,340,2014-05-14 01:35:00
8:55 PM,46.4,30.2,53,30.23,10.0,NNW,8.1,-,N/A,,Clear,340,2014-05-14 01:55:00
9:15 PM,44.6,32.0,61,30.24,10.0,NNW,5.8,-,N/A,,Clear,340,2014-05-14 02:15:00
9:55 PM,44.6,30.2,57,30.25,10.0,NW,4.6,-,N/A,,Clear,320,2014-05-14 02:55:00
10:15 PM,42.8,30.2,61,30.25,10.0,NW,4.6,-,N/A,,Clear,320,2014-05-14 03:15:00
10:35 PM,42.8,30.2,61,30.25,10.0,WNW,3.5,-,N/A,,Clear,290,2014-05-14 03:35:00
10:55 PM,41.0,30.2,65,30.26,10.0,WSW,3.5,-,N/A,,Clear,250,2014-05-14 03:55:00
11:15 PM,41.0,30.2,65,30.26,10.0,SW,4.6,-,N/A,,Clear,220,2014-05-14 04:15:00
11:35 PM,41.0,32.0,70,30.26,10.0,SW,4.6,-,N/A,,Clear,220,2014-05-14 04:35:00
11:55 PM,37.4,30.2,75,30.26,10.0,SSW,5.8,-,N/A,,Clear,210,2014-05-14 04:55:00